1515196800.82,56662,7.56,72678.8,-3.07,-5.81,-6.01,0,*5E
1515196802.09,56663,7.56,72670.8,-3.05,-5.81,-5.93,0,*55
1515196803.32,56664,7.56,72662.8,-3.07,-5.93,-5.97,0,*57
1515196804.56,56665,7.56,72662.0,-3.05,-5.81,-6.01,0,*5B
1515196805.81,56666,7.56,72662.5,-3.07,-5.85,-6.19,0,*57
1515196807.06,56667,7.56,72664.3,-3.07,-5.93,-6.23,0,*58
1515196808.33,56668,7.56,72670.5,-3.05,-5.89,-6.27,0,*5A
1515196809.53,56669,7.56,72674.3,-3.07,-5.97,-6.35,0,*55
1515196810.76,56670,7.56,72678.8,-3.05,-6.01,-6.47,0,*56
1515196811.96,56671,7.56,72678.3,-3.07,-6.09,-6.51,0,*5A
1515196813.18,56672,7.56,72676.8,-3.05,-6.13,-6.47,0,*57
1515196814.41,56673,7.56,72678.5,-3.07,-6.19,-6.47,0,*5E
1515196815.62,56674,7.56,72686.0,-3.07,-6.09,-6.35,0,*5D
1515196816.83,56675,7.56,72692.8,-3.05,-6.05,-6.43,0,*53
1515196818.05,56676,7.56,72694.3,-3.05,-6.13,-6.43,0,*57
1515196819.26,56677,7.56,72692.3,-3.07,-6.09,-6.47,0,*5B
1515196820.48,56678,7.56,72696.8,-3.05,-6.05,-6.43,0,*5E
1515196821.7,56679,7.56,72702.5,-3.05,-6.13,-6.47,0,*5C
1515196822.93,56680,7.56,72686.5,-3.07,-6.19,-6.47,0,*52
1515196824.14,56681,7.56,72680.5,-3.05,-6.05,-6.43,0,*58
1515196825.37,56682,7.56,72680.5,-3.05,-6.13,-6.55,0,*5B
1515196826.59,56683,7.56,72670.0,-3.07,-6.19,-6.51,0,*56
1515196827.81,56684,7.56,72674.0,-3.05,-6.13,-6.47,0,*5E
1515196829.04,56685,7.56,72672.5,-3.07,-6.19,-6.51,0,*50
1515196830.27,56686,7.56,72676.0,-3.07,-6.19,-6.51,0,*53
1515196831.5,56687,7.56,72676.3,-3.07,-6.19,-6.47,0,*55
1515196832.7,56688,7.56,72686.8,-3.07,-6.09,-6.51,0,*5C
1515196833.93,56689,7.56,72682.8,-3.07,-6.19,-6.47,0,*5B
1515196835.16,56690,7.56,72682.5,-3.07,-6.19,-6.47,0,*53
1515196836.39,56691,7.56,72672.5,-3.07,-6.19,-6.51,0,*55
1515196837.62,56692,7.56,72678.5,-3.07,-6.19,-6.51,0,*56
1515196838.82,56693,7.56,72660.0,-3.07,-6.09,-6.51,0,*56
1515196840.05,56694,7.56,72672.5,-3.07,-6.19,-6.47,0,*57
1515196841.25,56695,7.63,72680.3,-3.07,-6.09,-6.35,0,*52
1515196842.47,56696,7.56,72694.0,-3.05,-6.05,-6.43,0,*5E
1515196843.69,56697,7.56,72696.3,-3.05,-6.05,-6.47,0,*5B
1515196844.89,56698,7.56,72710.8,-3.07,-6.09,-6.35,0,*5F
1515196846.1,56699,7.56,72670.8,-3.07,-6.09,-6.35,0,*5E
1515196847.3,56700,7.56,72666.5,-3.07,-6.09,-6.47,0,*5A
1515196848.53,56701,7.56,72670.0,-3.07,-6.19,-6.35,0,*5F
1515196849.73,56702,7.56,72658.3,-3.07,-6.09,-6.35,0,*5D
1515196850.95,56703,7.56,72674.0,-3.05,-6.13,-6.43,0,*54
1515196852.15,56704,7.56,72706.0,-3.07,-6.05,-6.35,0,*57
1515196853.35,56705,7.56,72714.3,-3.07,-6.01,-6.31,0,*56
1515196854.56,56706,7.56,72714.8,-3.07,-5.97,-6.35,0,*5D
1515196855.75,56707,7.56,72718.5,-3.07,-6.05,-6.47,0,*51
1515196856.95,56708,7.56,72710.0,-3.07,-5.97,-6.35,0,*53
1515196858.15,56709,7.56,72698.0,-3.07,-6.05,-6.35,0,*5A
1515196859.35,56710,7.56,72698.5,-3.07,-6.05,-6.47,0,*57
1515196860.55,56711,7.56,72692.0,-3.07,-6.05,-6.35,0,*53
1515196861.77,56712,7.56,72710.3,-3.05,-6.05,-6.31,0,*56
1515196862.97,56713,7.56,72716.5,-3.07,-6.09,-6.47,0,*58
1515196864.18,56714,7.56,72706.8,-3.07,-6.09,-6.35,0,*5A
1515196865.38,56715,7.56,72674.0,-3.07,-5.97,-6.35,0,*5F
1515196866.65,56716,7.56,72666.3,-3.05,-5.93,-6.27,0,*59
1515196867.88,56717,7.56,72654.5,-3.07,-5.93,-6.31,0,*5D
1515196869.15,56718,7.56,72668.3,-3.05,-5.89,-6.19,0,*51
1515196870.4,56719,7.56,72680.3,-3.07,-5.93,-6.23,0,*50
1515196871.65,56720,7.56,72686.0,-3.07,-5.93,-6.23,0,*5A
1515196872.93,56721,7.56,72682.0,-3.05,-5.81,-6.19,0,*53
1515196874.2,56722,7.56,72694.3,-3.05,-5.81,-6.19,0,*50
1515196875.45,56723,7.56,72680.0,-3.07,-5.93,-6.23,0,*59
1515196876.72,56724,7.56,72692.0,-3.05,-5.93,-6.27,0,*58
1515196877.92,56725,7.56,72688.8,-3.07,-5.97,-6.31,0,*58
1515196879.15,56726,7.56,72672.0,-3.05,-6.01,-6.31,0,*55
1515196880.39,56727,7.56,72676.0,-3.05,-6.13,-6.27,0,*50
1515196881.61,56728,7.56,72680.3,-3.05,-6.01,-6.43,0,*5E
1515196882.83,56729,7.56,72674.8,-3.05,-6.05,-6.43,0,*5B
1515196884.07,56730,7.56,72678.0,-3.05,-6.05,-6.27,0,*51
1515196885.27,56731,7.56,72676.0,-3.07,-6.05,-6.31,0,*55
1515196886.49,56732,7.56,72672.8,-3.05,-6.01,-6.43,0,*55
1515196887.72,56733,7.56,72694.5,-3.05,-6.01,-6.31,0,*51
1515196888.94,56734,7.56,72686.0,-3.05,-6.05,-6.31,0,*52
1515196890.16,56735,7.56,72680.3,-3.05,-6.05,-6.31,0,*53
1515196891.43,56736,7.56,72658.5,-3.05,-5.93,-6.27,0,*5B
1515196892.65,56737,7.56,72654.5,-3.03,-5.97,-6.23,0,*5C
1515196893.85,56738,7.56,72648.8,-3.07,-6.05,-6.35,0,*58
1515196895.06,56739,7.56,72650.8,-3.03,-6.09,-6.31,0,*55
1515196896.3,56740,7.56,72678.8,-3.05,-6.05,-6.27,0,*56
1515196897.52,56741,7.56,72688.8,-3.03,-5.97,-6.23,0,*5D
1515196898.76,56742,7.56,72676.0,-3.05,-6.01,-6.27,0,*50
1515196899.98,56743,7.56,72678.8,-3.03,-6.01,-6.23,0,*53
1515196901.19,56744,7.56,72664.3,-3.07,-6.09,-6.47,0,*5A
1515196902.41,56745,7.56,72662.8,-3.05,-6.13,-6.43,0,*56
1515196903.63,56746,7.56,72664.0,-3.05,-6.05,-6.31,0,*57
1515196904.83,56747,7.56,72654.3,-3.07,-6.09,-6.35,0,*5C
1515196906.05,56748,7.56,72654.5,-3.05,-6.05,-6.43,0,*5C
1515196907.25,56749,7.56,72660.3,-3.07,-6.05,-6.35,0,*5E
1515196908.49,56750,7.56,72674.8,-3.05,-6.01,-6.27,0,*53
1515196909.74,56751,7.56,72664.8,-3.05,-6.01,-6.27,0,*52
1515196911.01,56752,7.56,72676.5,-3.05,-5.93,-6.19,0,*54
1515196912.29,56753,7.56,72666.0,-3.05,-5.93,-6.27,0,*58
1515196913.56,56754,7.56,72662.0,-3.05,-5.89,-6.19,0,*59
1515196914.83,56755,7.56,72664.0,-3.05,-5.89,-6.19,0,*58
1515196916.08,56756,7.56,72678.3,-3.07,-5.93,-6.23,0,*5B
1515196917.36,56757,7.56,72674.0,-3.05,-5.93,-6.19,0,*51
1515196918.58,56758,7.56,72678.8,-3.03,-5.85,-6.13,0,*55
1515196919.81,56759,7.56,72696.0,-3.03,-5.77,-6.13,0,*59
1515196921.06,56760,7.56,72694.8,-3.03,-5.89,-6.27,0,*55
1515196922.28,56761,7.56,72692.5,-3.03,-5.97,-6.23,0,*5F
1515196923.55,56762,7.56,72688.3,-3.01,-5.89,-6.23,0,*51
1515196924.77,56763,7.56,72690.0,-3.03,-5.97,-6.27,0,*59
1515196925.99,56764,7.56,72690.3,-3.03,-5.97,-6.23,0,*5A
1515196927.24,56765,7.56,72672.5,-3.05,-6.01,-6.27,0,*55
1515196928.46,56766,7.56,72668.5,-3.03,-5.97,-6.23,0,*58
1515196929.68,56767,7.56,72668.8,-3.03,-5.97,-6.23,0,*59
1515196930.9,56768,7.56,72660.8,-3.05,-6.01,-6.31,0,*5F
1515196932.1,56769,7.56,72658.8,-3.03,-6.01,-6.39,0,*50
1515196933.33,56770,7.56,72664.8,-3.03,-5.97,-6.27,0,*5B
1515196934.52,56771,7.56,72658.3,-3.03,-5.97,-6.39,0,*55
1515196935.75,56772,7.56,72650.3,-3.03,-6.01,-6.27,0,*55
1515196936.97,56773,7.56,72668.5,-3.03,-5.97,-6.23,0,*5C
1515196938.21,56774,7.56,72676.5,-3.05,-6.01,-6.27,0,*55
1515196939.49,56775,7.56,72690.8,-3.05,-5.93,-6.27,0,*5C
1515196940.76,56776,7.56,72706.8,-3.05,-5.93,-6.19,0,*52
1515196942.04,56777,7.56,72690.8,-3.05,-5.89,-6.19,0,*58
1515196943.31,56778,7.56,72678.5,-3.05,-5.93,-6.19,0,*5C
1515196944.54,56779,7.56,72684.8,-3.03,-5.85,-6.13,0,*56
1515196945.76,56780,7.56,72680.0,-3.03,-5.85,-6.13,0,*50
1515196946.99,56781,7.56,72678.8,-3.03,-5.85,-6.13,0,*51
1515196948.21,56782,7.56,72698.0,-3.03,-5.77,-6.01,0,*5C
1515196949.44,56783,7.56,72688.5,-3.03,-5.77,-5.97,0,*51
1515196950.69,56784,7.56,72644.3,-3.03,-5.65,-5.89,0,*5A
1515196951.97,56785,7.56,72654.3,-3.01,-5.65,-5.85,0,*55
1515196953.22,56786,7.56,72658.3,-3.03,-5.73,-5.89,0,*5F
1515196954.49,56787,7.56,72660.3,-3.01,-5.73,-5.85,0,*50
1515196955.76,56788,7.56,72662.5,-3.01,-5.73,-5.77,0,*52
1515196957.04,56789,7.56,72618.8,-3.01,-5.77,-5.89,0,*56
1515196958.3,56790,7.56,72642.0,-3.03,-5.85,-5.89,0,*51
1515196959.58,56791,7.56,72660.8,-3.01,-5.85,-5.89,0,*52
1515196960.84,56792,7.56,72670.3,-3.03,-5.85,-5.89,0,*53
1515196962.11,56793,7.56,72652.5,-3.01,-5.77,-5.77,0,*5C
1515196963.39,56794,7.56,72680.8,-3.01,-5.65,-5.73,0,*5C
1515196964.64,56795,7.56,72688.0,-3.01,-5.65,-5.51,0,*5D
1515196965.89,56796,7.56,72710.3,-3.01,-5.61,-5.43,0,*59
1515196967.12,56797,7.56,72688.0,-3.03,-5.51,-5.31,0,*5C
1515196968.37,56798,7.56,72706.0,-3.01,-5.43,-5.31,0,*52
1515196969.63,56799,7.56,72714.3,-3.01,-5.35,-5.23,0,*51
1515196970.88,56800,7.56,72722.3,-3.03,-5.23,-5.11,0,*5A
1515196972.16,56801,7.56,72694.3,-3.01,-5.11,-5.07,0,*5F
1515196973.41,56802,7.56,72684.5,-3.01,-5.07,-4.99,0,*5D
1515196974.66,56803,7.56,72662.5,-3.01,-4.99,-4.93,0,*50
1515196975.85,56804,7.56,72626.0,-3.03,-4.99,-4.99,0,*5F
1515196977.09,56805,7.56,72576.5,-3.03,-4.93,-4.93,0,*5E
1515196978.33,56806,7.56,72556.0,-3.01,-4.93,-4.99,0,*55
1515196979.54,56807,7.56,72582.8,-3.01,-4.99,-4.99,0,*5E
1515196980.78,56808,7.56,72592.5,-3.01,-4.93,-4.99,0,*5B
1515196982.02,56809,7.56,72596.8,-3.01,-4.93,-4.99,0,*5A
1515196983.29,56810,7.56,72610.0,-3.01,-4.85,-4.85,0,*58
1515196984.57,56811,7.56,72654.3,-3.01,-4.73,-4.85,0,*50
1515196985.81,56812,7.56,72664.8,-2.99,-4.69,-4.77,0,*55
1515196987.08,56813,7.56,72654.3,-3.01,-4.69,-4.81,0,*5D
1515196988.35,56814,7.56,72650.5,-3.01,-4.69,-4.81,0,*5A
1515196989.6,56815,7.56,72648.3,-3.01,-4.57,-4.73,0,*5B
1515196990.82,56816,7.56,72672.0,-3.01,-4.45,-4.57,0,*5D
1515196992.04,56817,7.56,72638.0,-3.01,-4.53,-4.65,0,*5A
1515196993.27,56818,7.56,72622.3,-3.01,-4.53,-4.65,0,*55
1515196994.52,56819,7.56,72628.0,-3.01,-4.53,-4.69,0,*58
1515196995.74,56820,7.56,72648.0,-3.01,-4.53,-4.65,0,*5E
1515196996.97,56821,7.56,72650.0,-3.01,-4.53,-4.65,0,*5F
1515196998.22,56822,7.56,72634.8,-3.01,-4.53,-4.69,0,*50
1515196999.44,56823,7.56,72660.0,-3.01,-4.45,-4.57,0,*5B
1515197000.66,56824,7.56,72666.3,-3.01,-4.45,-4.65,0,*5D
1515197001.88,56825,7.56,72682.8,-3.01,-4.45,-4.65,0,*5C
1515197003.12,56826,7.56,72688.3,-3.01,-4.53,-4.73,0,*5F
1515197004.35,56827,7.56,72666.5,-2.99,-4.61,-4.93,0,*51
1515197005.57,56828,7.56,72688.8,-2.99,-4.61,-5.07,0,*52
1515197006.85,56829,7.56,72694.3,-3.01,-4.73,-5.23,0,*56
1515197008.07,56830,7.56,72698.5,-3.01,-4.99,-5.47,0,*58
1515197009.32,56831,7.56,72696.8,-3.01,-5.35,-5.89,0,*5C
1515197010.55,56832,7.56,72686.3,-3.01,-5.47,-6.09,0,*51
1515197011.75,56833,7.56,72698.8,-2.99,-5.55,-6.05,0,*5F
1515197012.97,56834,7.56,72720.3,-3.01,-5.43,-6.09,0,*53
1515197014.21,56835,7.56,72694.5,-3.01,-5.61,-6.39,0,*51
1515197015.46,56836,7.56,72690.5,-3.01,-5.85,-6.39,0,*58
1515197016.67,56837,7.56,72682.3,-3.03,-6.01,-6.43,0,*59
1515197017.89,56838,7.56,72678.0,-3.01,-6.01,-6.55,0,*53
1515197019.1,56839,7.56,72686.0,-3.03,-6.09,-6.55,0,*58
1515197020.33,56840,7.56,72686.8,-3.01,-6.09,-6.55,0,*54
1515197021.53,56841,7.56,72686.3,-3.03,-6.09,-6.55,0,*57
1515197022.73,56842,7.56,72678.5,-3.03,-5.97,-6.43,0,*57
1515197023.96,56843,7.56,72686.8,-3.01,-5.97,-6.39,0,*59
1515197025.15,56844,7.56,72688.8,-3.03,-5.97,-6.39,0,*5C
1515197026.38,56845,7.56,72676.3,-3.03,-5.97,-6.27,0,*52
1515197027.63,56846,7.56,72672.3,-3.01,-5.97,-6.27,0,*53
1515197028.9,56847,7.56,72674.0,-3.01,-5.89,-6.27,0,*5D
1515197030.13,56848,7.56,72676.0,-3.01,-6.01,-6.39,0,*5E
1515197031.35,56849,7.56,72692.0,-3.01,-6.01,-6.39,0,*5F
1515197032.55,56850,7.56,72694.5,-3.03,-6.01,-6.39,0,*55
1515197033.8,56851,7.56,72676.5,-3.01,-6.01,-6.27,0,*59
1515197035.03,56852,7.56,72686.3,-3.01,-6.09,-6.43,0,*50
1515197036.26,56853,7.56,72700.3,-3.01,-6.09,-6.43,0,*51
1515197037.46,56854,7.56,72714.5,-3.03,-6.09,-6.51,0,*57
1515197038.7,56855,7.56,72696.3,-3.01,-6.09,-6.51,0,*54
1515197039.93,56856,7.56,72696.0,-3.01,-6.09,-6.51,0,*57
1515197041.13,56857,7.56,72694.0,-3.03,-6.01,-6.43,0,*5F
1515197042.33,56858,7.56,72688.8,-2.99,-6.05,-6.35,0,*57
1515197043.56,56859,7.56,72694.3,-3.01,-6.09,-6.51,0,*58
1515197044.79,56860,7.56,72694.5,-3.01,-6.09,-6.43,0,*51
1515197046.01,56861,7.56,72698.8,-3.01,-6.13,-6.51,0,*58
1515197047.24,56862,7.56,72712.8,-3.01,-6.09,-6.51,0,*50
1515197048.48,56863,7.56,72716.5,-3.01,-6.09,-6.43,0,*52
1515197049.67,56864,7.56,72696.8,-3.03,-6.01,-6.39,0,*52
1515197050.92,56865,7.56,72686.0,-3.01,-5.97,-6.27,0,*52
1515197052.2,56866,7.56,72700.0,-3.01,-5.89,-6.27,0,*5E
1515197053.4,56867,7.56,72704.3,-3.03,-5.97,-6.13,0,*55
1515197054.65,56868,7.56,72682.3,-3.01,-5.97,-6.27,0,*5F
1515197055.89,56869,7.56,72648.3,-3.01,-5.97,-6.27,0,*5E
1515197057.17,56870,7.56,72666.5,-3.01,-5.89,-6.27,0,*59
1515197058.42,56871,7.56,72660.0,-3.01,-5.97,-6.27,0,*57
1515197059.64,56872,7.56,72670.3,-3.01,-5.97,-6.39,0,*5B
1515197060.87,56873,7.56,72688.0,-3.01,-5.97,-6.39,0,*5A
1515197062.09,56874,7.56,72696.3,-3.01,-6.01,-6.39,0,*51
1515197063.32,56875,7.56,72704.5,-3.01,-5.97,-6.39,0,*5C
1515197064.54,56876,7.56,72720.5,-3.01,-6.09,-6.43,0,*56
1515197065.74,56877,7.56,72724.5,-2.99,-6.05,-6.39,0,*56
1515197066.94,56878,7.56,72716.8,-2.99,-5.97,-6.35,0,*5D
1515197068.17,56879,7.56,72714.0,-3.01,-6.09,-6.43,0,*59
1515197069.4,56880,7.56,72714.5,-3.01,-6.01,-6.51,0,*54
1515197070.63,56881,7.56,72724.0,-3.01,-6.09,-6.43,0,*5E
1515197071.86,56882,7.56,72732.5,-3.01,-6.09,-6.43,0,*5D
1515197073.09,56883,7.56,72726.3,-3.01,-6.09,-6.43,0,*5C
1515197074.32,56884,7.56,72730.0,-3.01,-6.09,-6.43,0,*5B
1515197075.55,56885,7.56,72724.8,-3.01,-6.09,-6.43,0,*5A
1515197076.78,56886,7.56,72728.3,-3.01,-6.09,-6.43,0,*59
1515197078.01,56887,7.56,72706.5,-3.01,-6.09,-6.51,0,*5B
1515197079.21,56888,7.56,72708.3,-3.03,-6.09,-6.43,0,*55
1515197080.44,56889,7.56,72690.8,-3.01,-6.01,-6.43,0,*5E
1515197081.67,56890,7.56,72680.8,-3.01,-6.09,-6.43,0,*5E
1515197082.9,56891,7.56,72682.0,-3.01,-6.09,-6.43,0,*5F
1515197084.13,56892,7.56,72692.0,-3.01,-6.09,-6.43,0,*5C
1515197085.36,56893,7.56,72700.0,-3.01,-6.09,-6.43,0,*5D
1515197086.56,56894,7.56,72714.5,-3.03,-6.09,-6.51,0,*5B
1515197087.76,56895,7.56,72714.3,-2.99,-6.05,-6.39,0,*5A
1515197088.99,56896,7.56,72722.8,-3.01,-6.09,-6.51,0,*5B
1515197090.22,56897,7.56,72728.8,-3.01,-6.09,-6.43,0,*59
1515197091.41,56898,7.56,72716.8,-2.99,-6.09,-6.39,0,*5B
1515197092.64,56899,7.56,72718.0,-3.01,-6.13,-6.51,0,*5F
1515197093.85,56900,7.56,72724.3,-3.03,-6.13,-6.51,0,*5C
1515197095.07,56901,7.56,72722.3,-3.01,-6.13,-6.43,0,*5C
1515197096.3,56902,7.56,72724.8,-3.01,-6.13,-6.39,0,*52
1515197097.52,56903,7.56,72724.3,-3.01,-6.01,-6.39,0,*50
1515197098.75,56904,7.56,72722.8,-3.01,-6.09,-6.39,0,*5F
1515197099.97,56905,7.56,72722.3,-3.01,-6.01,-6.39,0,*56
1515197101.2,56906,7.56,72726.0,-3.01,-6.01,-6.39,0,*55
1515197102.45,56907,7.56,72720.0,-3.01,-6.01,-6.27,0,*5B
1515197103.67,56908,7.56,72714.5,-3.01,-6.01,-6.39,0,*5B
1515197104.87,56909,7.56,72716.0,-2.99,-5.97,-6.35,0,*5A
1515197106.1,56910,7.56,72704.3,-3.01,-6.09,-6.43,0,*57
1515197107.33,56911,7.56,72700.5,-3.01,-6.01,-6.51,0,*5D
1515197108.56,56912,7.56,72702.5,-3.01,-6.09,-6.43,0,*55
1515197109.79,56913,7.56,72706.8,-3.01,-6.09,-6.51,0,*57
1515197111.02,56914,7.56,72702.8,-3.01,-6.09,-6.43,0,*53
1515197112.25,56915,7.56,72694.8,-3.01,-6.09,-6.55,0,*55
1515197113.48,56916,7.56,72710.8,-3.01,-6.09,-6.51,0,*52
1515197114.71,56917,7.56,72716.8,-3.01,-6.13,-6.51,0,*58
1515197115.94,56918,7.56,72702.8,-3.01,-6.13,-6.43,0,*54
1515197117.14,56919,7.56,72700.5,-3.03,-6.13,-6.51,0,*54
1515197118.34,56920,7.56,72704.0,-3.03,-6.13,-6.43,0,*5D
1515197119.57,56921,7.56,72696.3,-3.01,-6.13,-6.51,0,*5D
1515197120.8,56922,7.56,72692.0,-3.01,-6.13,-6.51,0,*5E
1515197122.0,56923,7.56,72696.3,-3.03,-6.13,-6.55,0,*59
1515197123.23,56924,7.56,72696.8,-3.01,-6.13,-6.55,0,*5C
1515197124.45,56925,7.56,72686.5,-3.01,-6.13,-6.51,0,*59
1515197125.68,56926,7.56,72686.5,-3.01,-6.13,-6.43,0,*59
1515197126.91,56927,7.56,72700.8,-3.03,-6.23,-6.43,0,*59
1515197128.13,56928,7.56,72708.8,-3.01,-6.13,-6.43,0,*57
1515197129.33,56929,7.56,72704.5,-3.03,-6.13,-6.39,0,*59
1515197130.56,56930,7.56,72694.0,-3.01,-6.13,-6.39,0,*53
1515197131.78,56931,7.56,72696.3,-3.03,-6.13,-6.27,0,*5F
1515197133.0,56932,7.56,72690.5,-3.03,-6.13,-6.27,0,*5C
1515197134.25,56933,7.56,72700.8,-3.01,-6.13,-6.23,0,*5B
1515197135.48,56934,7.56,72718.5,-3.01,-6.13,-6.13,0,*5F
1515197136.72,56935,7.56,72726.5,-3.01,-6.13,-6.23,0,*5D
1515197137.92,56936,7.56,72724.0,-3.03,-6.09,-6.13,0,*54
1515197139.12,56937,7.56,72724.8,-3.03,-6.09,-6.13,0,*55
1515197140.32,56938,7.56,72724.0,-2.99,-5.97,-6.05,0,*5B
1515197141.54,56939,7.56,72730.3,-3.01,-6.09,-6.09,0,*52
1515197142.77,56940,7.56,72740.8,-3.03,-5.97,-5.89,0,*51
1515197144.03,56941,7.56,72728.5,-3.01,-5.97,-5.89,0,*52
1515197145.28,56942,7.56,72720.0,-3.01,-5.97,-5.77,0,*50
1515197146.52,56943,7.56,72720.8,-3.03,-5.89,-5.73,0,*58
1515197147.81,56944,7.56,72716.5,-3.01,-5.85,-5.61,0,*52
1515197149.04,56945,7.56,72712.5,-3.03,-5.77,-5.51,0,*5F
1515197150.29,56946,7.56,72730.0,-3.01,-5.85,-5.43,0,*50
1515197151.53,56947,7.56,72728.8,-3.01,-5.73,-5.43,0,*58
1515197152.78,56948,7.56,72696.0,-3.01,-5.73,-5.35,0,*56
1515197154.03,56949,7.56,72700.3,-3.01,-5.65,-5.35,0,*50
1515197155.26,56950,7.56,72704.3,-3.03,-5.51,-5.19,0,*53
1515197156.51,56951,7.56,72706.8,-3.01,-5.43,-5.07,0,*5C
1515197157.74,56952,7.56,72722.8,-3.01,-5.35,-4.99,0,*58
1515197159.01,56953,7.56,72720.3,-3.01,-5.11,-4.81,0,*56
1515197160.28,56954,7.56,72724.3,-3.01,-4.93,-4.81,0,*5A
1515197161.53,56955,7.56,72728.5,-3.01,-4.85,-4.57,0,*57
1515197162.77,56956,7.56,72720.5,-3.01,-4.81,-4.53,0,*54
1515197164.0,56957,7.56,72718.3,-3.03,-4.81,-4.53,0,*57
1515197165.24,56958,7.56,72712.0,-3.01,-4.85,-4.53,0,*5E
1515197166.48,56959,7.56,72700.3,-3.01,-4.81,-4.45,0,*5C
1515197167.73,56960,7.56,72708.3,-3.01,-4.81,-4.41,0,*52
1515197168.97,56961,7.56,72706.0,-3.01,-4.85,-4.33,0,*52
1515197170.21,56962,7.56,72700.8,-3.01,-4.81,-4.33,0,*55
1515197171.46,56963,7.56,72714.8,-3.01,-4.81,-4.29,0,*5F
1515197172.71,56964,7.56,72706.8,-3.01,-4.69,-4.21,0,*56
1515197173.95,56965,7.56,72708.5,-3.01,-4.69,-4.21,0,*57
1515197175.16,56966,7.56,72694.3,-3.03,-4.57,-4.21,0,*5B
1515197176.36,56967,7.56,72702.5,-2.99,-4.61,-4.25,0,*59
1515197177.56,56968,7.56,72696.8,-2.99,-4.53,-4.25,0,*57
1515197178.75,56969,7.56,72712.3,-2.99,-4.53,-4.13,0,*53
1515197179.95,56970,7.56,72704.5,-2.99,-4.49,-4.13,0,*50
1515197181.14,56971,7.56,72696.0,-2.99,-4.41,-4.17,0,*5D
1515197182.33,56972,7.56,72692.3,-2.99,-4.37,-4.05,0,*5C
1515197183.53,56973,7.56,72692.3,-2.99,-4.29,-4.13,0,*55
1515197184.76,56974,7.56,72696.5,-3.01,-4.33,-4.09,0,*52
1515197185.98,56975,7.56,72688.3,-3.01,-4.41,-4.17,0,*59
1515197187.2,56976,7.56,72696.5,-3.01,-4.29,-4.09,0,*5B
1515197188.4,56977,7.56,72688.3,-2.99,-4.37,-4.13,0,*5E
1515197189.63,56978,7.56,72698.5,-3.01,-4.33,-4.09,0,*5E
1515197190.85,56979,7.56,72708.0,-3.01,-4.29,-4.05,0,*58
1515197192.08,56980,7.56,72688.0,-3.01,-4.21,-4.17,0,*55
1515197193.3,56981,7.56,72690.5,-3.01,-4.09,-4.09,0,*51
1515197194.53,56982,7.56,72700.8,-3.01,-4.09,-4.05,0,*5E
1515197195.75,56983,7.56,72688.0,-3.01,-4.17,-4.05,0,*50
1515197196.98,56984,7.56,72694.5,-3.01,-4.09,-4.05,0,*58
1515197198.2,56985,7.56,72694.0,-2.99,-4.05,-4.01,0,*51
1515197199.42,56986,7.56,72706.0,-3.01,-4.09,-4.05,0,*5A
1515197200.65,56987,7.56,72690.3,-3.01,-4.09,-4.05,0,*5B
1515197201.87,56988,7.56,72696.0,-3.01,-4.09,-4.09,0,*58
1515197203.1,56989,7.56,72700.0,-3.01,-4.29,-4.21,0,*51
1515197204.33,56990,7.56,72702.5,-3.01,-4.29,-4.09,0,*53
1515197205.55,56991,7.56,72696.8,-2.97,-4.17,-4.05,0,*5D
1515197206.75,56992,7.56,72698.0,-2.99,-4.25,-4.13,0,*56
1515197207.95,56993,7.56,72694.5,-2.99,-4.25,-4.13,0,*57
1515197209.15,56994,7.56,72690.3,-2.99,-4.37,-4.13,0,*53
1515197210.35,56995,7.56,72680.5,-2.99,-4.37,-4.25,0,*57
1515197211.57,56996,7.56,72686.5,-3.01,-4.45,-4.29,0,*5D
1515197212.79,56997,7.56,72704.5,-3.01,-4.41,-4.33,0,*53
1515197213.98,56998,7.56,72708.8,-2.99,-4.49,-4.37,0,*50
1515197215.2,56999,7.56,72696.8,-2.97,-4.49,-4.49,0,*56
1515197216.4,57000,7.56,72694.0,-2.99,-4.61,-4.61,0,*50
1515197217.62,57001,7.56,72700.5,-2.99,-4.69,-4.65,0,*5D
1515197218.86,57002,7.56,72680.3,-2.99,-4.93,-4.81,0,*51
1515197220.12,57003,7.56,72666.0,-2.99,-5.07,-5.03,0,*57
1515197221.37,57004,7.56,72662.0,-2.99,-5.19,-5.15,0,*58
1515197222.63,57005,7.56,72672.8,-2.99,-5.31,-5.27,0,*52
1515197223.88,57006,7.56,72668.8,-2.99,-5.27,-5.27,0,*56
1515197225.14,57007,7.56,72666.8,-2.99,-5.27,-5.31,0,*50
1515197226.33,57008,7.56,72670.5,-2.99,-5.39,-5.43,0,*55
1515197227.56,57009,7.56,72672.5,-2.99,-5.47,-5.61,0,*5D
1515197228.81,57010,7.56,72690.5,-2.99,-5.61,-5.69,0,*59
1515197230.06,57011,7.56,72694.8,-2.99,-5.61,-5.81,0,*5E
1515197231.3,57012,7.56,72684.5,-3.01,-5.73,-5.97,0,*59
1515197232.52,57013,7.56,72686.8,-2.99,-5.69,-5.97,0,*53
1515197233.77,57014,7.56,72684.8,-3.01,-5.65,-6.09,0,*5C
1515197234.99,57015,7.56,72684.5,-2.99,-5.69,-6.05,0,*5D
1515197236.21,57016,7.56,72684.3,-3.03,-5.85,-6.09,0,*52
1515197237.46,57017,7.56,72706.5,-3.01,-5.89,-6.13,0,*56
1515197238.69,57018,7.56,72670.0,-3.01,-6.01,-6.13,0,*5A
1515197239.88,57019,7.56,72668.3,-3.03,-6.01,-6.13,0,*59
1515197241.11,57020,7.56,72662.0,-3.01,-6.01,-6.09,0,*5A
1515197242.36,57021,7.56,72656.0,-3.01,-5.97,-5.89,0,*5C
1515197243.64,57022,7.56,72648.5,-3.01,-5.77,-5.77,0,*50
1515197244.91,57023,7.56,72618.5,-3.01,-5.77,-5.77,0,*51
1515197246.15,57024,7.56,72664.8,-3.03,-5.73,-5.73,0,*54
1515197247.4,57025,7.56,72674.8,-3.01,-5.61,-5.51,0,*54
1515197248.63,57026,7.56,72666.5,-3.01,-5.47,-5.51,0,*53
1515197249.83,57027,7.56,72662.0,-3.03,-5.43,-5.47,0,*53
1515197251.02,57028,7.56,72684.3,-3.03,-5.43,-5.43,0,*58
1515197252.24,57029,7.56,72694.8,-3.01,-5.35,-5.43,0,*5A
1515197253.5,57030,7.56,72678.0,-3.01,-5.31,-5.47,0,*52
1515197254.78,57031,7.56,72682.3,-3.01,-5.31,-5.61,0,*57
1515197256.03,57032,7.56,72672.3,-3.01,-5.35,-5.77,0,*57
1515197257.23,57033,7.56,72672.5,-3.03,-5.51,-5.97,0,*58
1515197258.47,57034,7.56,72670.5,-3.01,-5.61,-6.01,0,*52
1515197259.72,57035,7.56,72668.8,-3.01,-5.65,-6.01,0,*57
1515197260.97,57036,7.56,72696.5,-3.01,-5.65,-6.09,0,*5C
1515197262.18,57037,7.56,72684.8,-3.03,-5.73,-6.09,0,*58
1515197263.41,57038,7.56,72692.8,-3.03,-5.77,-6.13,0,*58
1515197264.63,57039,7.56,72684.8,-3.03,-5.77,-6.13,0,*59
1515197265.85,57040,7.56,72646.8,-3.03,-5.77,-6.01,0,*54
1515197267.13,57041,7.56,72648.3,-3.01,-5.65,-5.89,0,*57
1515197268.38,57042,7.56,72646.0,-3.03,-5.65,-5.89,0,*56
1515197269.63,57043,7.56,72662.0,-3.01,-5.51,-5.73,0,*57
1515197270.87,57044,7.56,72664.8,-3.03,-5.51,-5.85,0,*5B
1515197272.13,57045,7.56,72664.3,-3.01,-5.73,-5.77,0,*55
1515197273.41,57046,7.56,72702.3,-3.01,-5.65,-5.65,0,*52
1515197274.64,57047,7.56,72692.5,-2.99,-5.61,-5.55,0,*54
1515197275.88,57048,7.56,72680.5,-2.99,-5.73,-5.81,0,*51
1515197277.13,57049,7.56,72664.8,-2.99,-5.81,-5.81,0,*5D
1515197278.38,57050,7.56,72634.5,-2.99,-5.85,-5.73,0,*5C
1515197279.64,57051,7.56,72616.8,-2.99,-5.81,-5.61,0,*5A
1515197280.86,57052,7.56,72628.8,-2.99,-5.81,-5.47,0,*5D
1515197282.11,57053,7.56,72654.3,-3.01,-5.77,-5.47,0,*55
1515197283.33,57054,7.56,72670.3,-2.99,-5.73,-5.39,0,*5F
1515197284.55,57055,7.56,72688.8,-2.99,-5.73,-5.39,0,*5E
1515197285.8,57056,7.56,72684.0,-2.99,-5.69,-5.15,0,*58
1515197287.06,57057,7.56,72684.5,-2.99,-5.61,-5.03,0,*56
1515197288.28,57058,7.56,72688.0,-3.01,-5.51,-4.99,0,*58
1515197289.53,57059,7.56,72692.3,-3.01,-5.47,-4.93,0,*54
1515197290.75,57060,7.56,72680.0,-2.99,-5.43,-4.77,0,*50
1515197291.98,57061,7.56,72684.5,-2.99,-5.39,-4.81,0,*55
1515197293.2,57062,7.56,72688.8,-2.99,-5.39,-4.77,0,*5F
1515197294.48,57063,7.56,72678.5,-3.01,-5.31,-4.73,0,*52
1515197295.73,57064,7.56,72682.8,-2.99,-5.27,-4.69,0,*59
1515197296.95,57065,7.56,72682.0,-2.99,-5.27,-4.65,0,*54
1515197298.18,57066,7.56,72680.0,-2.99,-5.19,-4.65,0,*5A
1515197299.46,57067,7.56,72676.5,-3.01,-5.19,-4.69,0,*57
1515197300.71,57068,7.56,72686.8,-2.99,-5.07,-4.69,0,*57
1515197301.94,57069,7.56,72688.8,-2.99,-5.03,-4.65,0,*5E
1515197303.16,57070,7.56,72690.3,-2.99,-4.93,-4.65,0,*5E
1515197304.41,57071,7.56,72686.5,-3.01,-5.07,-4.65,0,*53
1515197305.64,57072,7.56,72698.0,-2.99,-5.03,-4.65,0,*54
1515197306.86,57073,7.56,72702.8,-2.99,-4.93,-4.65,0,*5D
1515197308.1,57074,7.56,72692.5,-2.97,-4.93,-4.61,0,*50
1515197309.32,57075,7.56,72688.3,-2.99,-4.93,-4.65,0,*5B
1515197310.56,57076,7.56,72674.8,-2.99,-4.93,-4.69,0,*54
1515197311.81,57077,7.56,72680.0,-2.99,-5.07,-4.77,0,*56
1515197313.06,57078,7.56,72706.8,-2.99,-5.07,-4.77,0,*59
1515197314.34,57079,7.56,72722.8,-3.01,-5.19,-4.81,0,*5E
1515197315.63,57080,7.56,72698.5,-3.01,-5.23,-5.07,0,*5E
1515197316.91,57081,7.56,72706.0,-3.01,-5.31,-5.11,0,*5B
1515197318.16,57082,7.56,72690.3,-3.01,-5.35,-5.23,0,*5D